Starlink 30404

operational
NORAD ID: 57853 Int'l Des: 2023-141 Owner: SPXS Country: US Constellation: starlink
LEOCIRCULAR

Starlink 30404について

説明を読み込み中...

リアルタイム位置

3D地球を読み込み中...

次回通過

高度履歴

Altitude vs Time

uPlot chart will show altitude changes over time

軌道要素

1 57853U 23141P 25303.91144694 .00004512 00000-0 16448-3 0 9998
2 57853 53.1581 166.5580 0001173 86.7711 273.3424 15.30179295120466
Epoch: Oct 30, 2025 • Age: 11 hours

現在のステータス

高度 479.5 km
速度 7.63 km/s
衛星直下点 46.36°N, 112.76°E
打ち上げ日 Sep 12, 2023
運用期間 2.1 years
タイプ internet

技術仕様

分類 Payload
質量 730.00 kg
乾燥質量 700.00 kg
総質量 730.00 kg
長さ 0.30 m
直径 4.10 m
スパン 29.00 m
形状 Box + pan
製造者 SPXS
バスタイプ Starlink V2M
フェーズステータス In Orbit
所有者/国 SPXS/US

大規模コンステレーション

Loading constellations...